Location: Newark
(7.0858°N, 171.3717°E)
Time: 06:27:33
(UTC+00:00)

A-11 Canister half - Pass Details

Date: 29 July 2021
Orbit: 1526 x 1683 km, 47.3° (Epoch: 16 September)

Event Time Altitude Azimuth Distance (km) Brightness Sun altitude
Rises 09:52:53 0° 308° (NW) 4,735 12.4 -41.2°
Reaches altitude 10° 09:56:07 10° 303° (WNW) 3,733 11.7 -41.9°
Enters shadow 10:03:35 46° 256° (WSW) 1,978 9.6 -43.4°
